Big Delta, AK

7:50 AM AKST on January 22, 2018 (GMT -0900)
Allen Army Air Field

Weather History for PABI - March, 2012

Change the Weather History Date:

Thursday, March 1, 2012

  Actual Average Record
Temperature  
Mean Temperature -3 °F -  
Max Temperature 10 °F 18 °F 37 °F (2003)
Min Temperature -16 °F 0 °F -29 °F (2011)
Degree Days  
Heating Degree Days 68    
Moisture  
Dew Point -5 °F    
Average Humidity 70    
Maximum Humidity 82    
Minimum Humidity 64    
Precipitation  
Precipitation 0.00 in - - ()
Sea Level Pressure  
Sea Level Pressure 29.67 in    
Wind  
Wind Speed 15 mph (ESE)    
Max Wind Speed 36 mph    
Max Gust Speed 50 mph    
Visibility 10 miles    
Events      
Averages and records for this station are not official NWS values.
T = Trace of Precipitation, MM = Missing Value Source: NWS Daily Summary

Daily Weather History Graph

Daily Weather History Graph

Search for Another Location

Airport or City:

Trip Planner

Search our weather history database for the weather conditions in past years. The results will help you decide how hot, cold, wet, or windy it might be!

Date:

Astronomy

Mar. 01, 2012 Rise Set
Actual Time 7:47 AM AKST 6:03 PM AKST
Civil Twilight 6:59 AM AKST 6:51 PM AKST
Nautical Twilight 6:05 AM AKST 7:46 PM AKST
Astronomical Twilight 5:08 AM AKST 8:43 PM AKST
Moon 9:32 AM AKST (3/1) 4:52 AM AKST (3/1)
Length of Visible Light 11h 51m
Length of Day
10h 16m
First Quarter, 58% of the Moon is Illuminated
Mar 1
First Quarter
Mar 8
Full
Mar 14
Last Quarter
Mar 22
New
Mar 30
First Quarter

Hourly Weather History & Observations

Time (AKST) Temp. Windchill Dew Point Humidity Pressure Visibility Wind Dir Wind Speed Gust Speed Precip Events Conditions
12:53 AM -14.1 °F -26.3 °F -18.0 °F 82% 29.94 in 10.0 mi SSW 4.6 mph - N/A   Clear
1:53 AM -14.1 °F -26.3 °F -18.9 °F 79% 29.92 in 10.0 mi South 4.6 mph - N/A   Partly Cloudy
2:53 AM -15.0 °F - -18.9 °F 82% 29.89 in 10.0 mi Calm Calm - N/A   Clear
3:53 AM -16.1 °F - -20.0 °F 82% 29.86 in 10.0 mi Calm Calm - N/A   Clear
4:53 AM -13.0 °F - -18.0 °F 78% 29.83 in 10.0 mi Calm Calm - N/A   Clear
5:53 AM -14.1 °F -23.9 °F -18.0 °F 82% 29.81 in 10.0 mi Variable 3.5 mph - N/A   Scattered Clouds
6:53 AM 1.9 °F -19.8 °F -6.0 °F 69% 29.75 in 10.0 mi East 20.7 mph 29.9 mph N/A   Scattered Clouds
7:53 AM 3.0 °F -19.7 °F -5.1 °F 69% 29.73 in 10.0 mi ESE 24.2 mph 33.4 mph N/A   Scattered Clouds
8:53 AM 3.9 °F -20.1 °F -4.0 °F 70% 29.70 in 10.0 mi East 28.8 mph 38.0 mph N/A   Scattered Clouds
9:53 AM 6.1 °F -17.9 °F -2.0 °F 69% 29.68 in 10.0 mi ESE 31.1 mph 41.4 mph N/A   Mostly Cloudy
10:53 AM 7.0 °F -18.0 °F -0.9 °F 70% 29.65 in 10.0 mi ESE 35.7 mph 49.5 mph N/A   Mostly Cloudy
11:53 AM 8.1 °F -16.5 °F -0.9 °F 67% 29.65 in 10.0 mi ESE 35.7 mph 47.2 mph N/A   Scattered Clouds
12:53 PM 9.0 °F -14.6 °F -0.0 °F 67% 29.64 in 10.0 mi East 33.4 mph 40.3 mph N/A   Scattered Clouds
1:53 PM 10.0 °F -11.9 °F -0.0 °F 64% 29.62 in 10.0 mi East 28.8 mph 42.6 mph 0.00 in   Scattered Clouds
2:53 PM 10.0 °F -12.8 °F 1.0 °F 67% 29.61 in 10.0 mi ESE 32.2 mph 43.7 mph 0.00 in   Mostly Cloudy
3:53 PM 10.0 °F -10.8 °F 1.0 °F 67% 29.61 in 10.0 mi East 25.3 mph 36.8 mph 0.00 in   Mostly Cloudy
4:53 PM 10.0 °F -12.2 °F 1.0 °F 67% 29.60 in 10.0 mi East 29.9 mph 40.3 mph N/A   Mostly Cloudy
5:53 PM 10.0 °F -11.5 °F -0.0 °F 64% 29.59 in 10.0 mi ESE 27.6 mph 36.8 mph N/A   Mostly Cloudy
6:53 PM 9.0 °F -11.0 °F -0.0 °F 67% 29.56 in 10.0 mi ESE 21.9 mph 28.8 mph N/A   Mostly Cloudy
7:53 PM 9.0 °F -9.5 °F -0.0 °F 67% 29.57 in 10.0 mi ESE 18.4 mph - N/A   Scattered Clouds
8:53 PM 9.0 °F -8.5 °F -0.0 °F 67% 29.56 in 10.0 mi ESE 16.1 mph 26.5 mph N/A   Mostly Cloudy
9:24 PM 8.6 °F -9.5 °F -0.4 °F 67% 29.42 in 10.0 mi ESE 17.3 mph - N/A   Mostly Cloudy
9:53 PM 9.0 °F -8.5 °F -0.0 °F 67% 29.55 in 10.0 mi ESE 16.1 mph - N/A   Mostly Cloudy
10:53 PM 9.0 °F -7.9 °F -0.9 °F 64% 29.55 in 10.0 mi ESE 15.0 mph - N/A   Clear
11:53 PM 8.1 °F -10.2 °F -0.9 °F 67% 29.54 in 10.0 mi ESE 17.3 mph 25.3 mph N/A   Clear